Погода в Старых Урмарах

Россия / Чувашская Республика     55°41′09″N   47°59′24″E
темп.,
°C
ветер,
м/с
пор.,
м/с
влажн.,
%
обл.,
%
осадки,
мм/ч
давл.,
гПа
погр.,
м
17 апреля, сб
сб1700:00+6св4117721 0.0 1025254
03:00+4св410755 0.0 1026222
06:00+4св410713 0.0 1027263
09:00+8всв69543 0.0 1027536
12:00+12всв67403 0.0 1026960
15:00+12всв67375 0.0 10251056
18:00+9св69560 0.0 1025410
21:00+5св410760 0.0 1025243
18 апреля, вс
вс1800:00+3св49840 0.0 1025191
03:00+2св38870 0.0 1025156
06:00+3св38820 0.0 1025194
09:00+9всв58580 0.0 1024701
12:00+12всв67445 0.0 10241400
15:00+12всв774511 0.0 10241771
18:00+8св811687 0.0 1025763
21:00+5всв5116775 0.0 1027476
19 апреля, пн
пн1900:00+3всв5115437 0.0 1028424
03:00+1всв5116626 0.0 1029405
06:00+1всв6136053 0.0 1030608
09:00+4в8114490 0.0 10311102
12:00+6в91133100 0.0 10311436
15:00+7в8103198 0.0 10311647
18:00+5в61137100 0.0 1031781
21:00+3в71442100 0.0 1032552
20 апреля, вт
вт2000:00+2в6144886 0.0 1032444
03:000в613555 0.0 1033320
06:00+1вюв513580 0.0 1033437
09:00+5вюв811370 0.0 1033992
12:00+8юв811310 0.0 10331334
15:00+9вюв911292 0.0 10301409
18:00+8вюв7123710 0.0 1029661
21:00+5юв71644100 0.0 1029597
21 апреля, ср
ср2100:00+4юв81650100 0.0 1028577
03:00+3юв91851100 0.0 1027645
06:00+3юв91852100 0.0 1025733
09:00+6ююв101852100 0.0 1025887
12:00+3юв101978100 2.4 1025806
15:00+3ююв101980100 3.6 1025813
18:00+3ююв101885100 0.5 1025732
21:00+3ююв91787100 0.6 1025654